Location: Newark
(40.9833°N, 0.0333°W)
Time: 01:30:19
(UTC+00:00)

deb Explorer IX - Pass Details

Date: 30 October 2020
Orbit: 537 x 1105 km, 38.8° (Epoch: 02 December)

Event Time Altitude Azimuth Distance (km) Brightness Sun altitude
Rises 02:39:41 0° 191° (S) 3,065 - -43.2°
Reaches altitude 10° 02:43:28 10° 161° (SSE) 2,289 - -42.6°
Maximum altitude 02:45:36 12° 138° (SE) 2,206 - -42.2°
Exits shadow 02:47:33 11° 117° (ESE) 2,403 ? -41.8°
Drops below altitude 10° 02:47:51 10° 114° (ESE) 2,452 ? -41.8°
Sets 02:52:15 0° 87° (E) 3,548 ? -41.0°
